TimeEST,TemperatureF,Dew PointF,Humidity,Sea Level PressureIn,VisibilityMPH,Wind Direction,Wind SpeedMPH,Gust SpeedMPH,PrecipitationIn,Events,Conditions,WindDirDegrees,DateUTC
12:15 AM,62.6,53.6,72,30.17,10.0,South,12.7,19.6,N/A,,Overcast,190,2012-11-13 05:15:00
12:35 AM,62.6,53.6,72,30.16,10.0,South,11.5,18.4,N/A,,Overcast,190,2012-11-13 05:35:00
12:55 AM,62.6,53.6,72,30.15,10.0,South,12.7,19.6,N/A,,Overcast,180,2012-11-13 05:55:00
1:15 AM,62.6,55.4,77,30.14,10.0,South,15.0,20.7,N/A,,Overcast,180,2012-11-13 06:15:00
1:35 AM,62.6,55.4,77,30.13,10.0,South,12.7,24.2,N/A,,Overcast,190,2012-11-13 06:35:00
1:55 AM,62.6,55.4,77,30.11,10.0,South,18.4,26.5,N/A,,Overcast,180,2012-11-13 06:55:00
2:15 AM,64.4,55.4,73,30.10,10.0,South,15.0,26.5,N/A,,Overcast,180,2012-11-13 07:15:00
2:35 AM,64.4,55.4,73,30.10,10.0,South,13.8,27.6,N/A,,Overcast,180,2012-11-13 07:35:00
2:55 AM,64.4,55.4,73,30.08,10.0,South,15.0,23.0,N/A,,Overcast,190,2012-11-13 07:55:00
3:15 AM,64.4,55.4,73,30.09,10.0,SSW,13.8,25.3,N/A,,Overcast,200,2012-11-13 08:15:00
3:35 AM,64.4,55.4,73,30.08,10.0,South,17.3,27.6,N/A,,Overcast,190,2012-11-13 08:35:00
3:55 AM,64.4,53.6,68,30.08,10.0,SSW,16.1,20.7,N/A,,Overcast,210,2012-11-13 08:55:00
4:15 AM,57.2,46.4,67,30.13,10.0,WSW,10.4,27.6,N/A,,Overcast,250,2012-11-13 09:15:00
4:35 AM,53.6,48.2,82,30.16,9.0,West,6.9,-,0.03,,Mostly Cloudy,260,2012-11-13 09:35:00
4:55 AM,51.8,46.4,82,30.17,8.0,West,4.6,-,0.04,,Overcast,270,2012-11-13 09:55:00
5:15 AM,50.0,44.6,82,30.17,10.0,NNW,5.8,-,0.01,,Overcast,340,2012-11-13 10:15:00
5:35 AM,50.0,44.6,82,30.18,10.0,WNW,3.5,-,0.05,,Overcast,300,2012-11-13 10:35:00
5:55 AM,48.2,44.6,87,30.21,7.0,SW,4.6,-,0.07,,Overcast,220,2012-11-13 10:55:00
6:15 AM,48.2,44.6,87,30.20,9.0,Calm,Calm,-,0.01,,Overcast,0,2012-11-13 11:15:00
6:35 AM,48.2,44.6,87,30.19,10.0,Calm,Calm,-,0.01,,Overcast,0,2012-11-13 11:35:00
6:55 AM,48.2,44.6,87,30.20,10.0,Calm,Calm,-,0.01,,Overcast,0,2012-11-13 11:55:00
7:15 AM,48.2,42.8,82,30.22,8.0,NW,9.2,17.3,0.01,,Overcast,310,2012-11-13 12:15:00
7:35 AM,46.4,41.0,81,30.24,7.0,NNW,8.1,-,0.02,,Overcast,330,2012-11-13 12:35:00
7:55 AM,44.6,41.0,87,30.23,3.0,North,8.1,-,0.02,,Overcast,350,2012-11-13 12:55:00
8:15 AM,44.6,41.0,87,30.24,5.0,Calm,Calm,-,0.01,,Overcast,0,2012-11-13 13:15:00
8:35 AM,44.6,41.0,87,30.23,5.0,North,3.5,-,0.02,,Overcast,360,2012-11-13 13:35:00
8:55 AM,44.6,41.0,87,30.25,5.0,Calm,Calm,-,0.03,,Overcast,0,2012-11-13 13:55:00
9:15 AM,44.6,41.0,87,30.27,3.0,NNW,3.5,-,0.01,,Overcast,330,2012-11-13 14:15:00
9:35 AM,44.6,41.0,87,30.28,5.0,North,5.8,-,0.02,,Overcast,360,2012-11-13 14:35:00
9:55 AM,44.6,41.0,87,30.27,10.0,NNW,5.8,-,0.03,,Overcast,340,2012-11-13 14:55:00
10:15 AM,44.6,39.2,81,30.26,10.0,Calm,Calm,-,N/A,,Overcast,0,2012-11-13 15:15:00
10:35 AM,44.6,39.2,81,30.26,10.0,NW,4.6,-,N/A,,Overcast,320,2012-11-13 15:35:00
10:55 AM,42.8,39.2,87,30.27,9.0,NNW,5.8,-,0.04,,Mostly Cloudy,340,2012-11-13 15:55:00
11:15 AM,42.8,37.4,81,30.26,10.0,NNW,5.8,-,0.04,,Mostly Cloudy,330,2012-11-13 16:15:00
11:35 AM,41.0,35.6,81,30.26,10.0,WNW,3.5,-,0.06,,Overcast,300,2012-11-13 16:35:00
11:55 AM,42.8,37.4,81,30.26,10.0,NW,8.1,-,0.06,,Partly Cloudy,320,2012-11-13 16:55:00
12:35 PM,42.8,35.6,76,30.26,10.0,Calm,Calm,-,N/A,,Partly Cloudy,0,2012-11-13 17:35:00
12:55 PM,42.8,37.4,81,30.26,10.0,NW,5.8,-,N/A,,Mostly Cloudy,310,2012-11-13 17:55:00
1:15 PM,42.8,35.6,76,30.26,10.0,NW,6.9,-,N/A,,Mostly Cloudy,310,2012-11-13 18:15:00
1:55 PM,42.8,35.6,76,30.26,10.0,NNW,6.9,-,N/A,,Overcast,340,2012-11-13 18:55:00
2:15 PM,42.8,35.6,76,30.27,10.0,West,8.1,-,N/A,,Mostly Cloudy,280,2012-11-13 19:15:00
2:35 PM,42.8,35.6,76,30.28,10.0,NNW,9.2,-,N/A,,Overcast,330,2012-11-13 19:35:00
2:55 PM,42.8,33.8,70,30.29,10.0,North,9.2,-,N/A,,Overcast,10,2012-11-13 19:55:00
3:15 PM,42.8,33.8,70,30.29,10.0,North,10.4,-,N/A,,Overcast,360,2012-11-13 20:15:00
3:35 PM,42.8,33.8,70,30.30,10.0,NNW,8.1,-,N/A,,Mostly Cloudy,330,2012-11-13 20:35:00
3:55 PM,42.8,33.8,70,30.31,10.0,North,6.9,-,N/A,,Overcast,350,2012-11-13 20:55:00
4:15 PM,42.8,33.8,70,30.31,10.0,North,12.7,-,N/A,,Overcast,360,2012-11-13 21:15:00
4:35 PM,42.8,30.2,61,30.33,10.0,NNW,5.8,-,N/A,,Overcast,330,2012-11-13 21:35:00
4:55 PM,42.8,28.4,57,30.33,10.0,North,8.1,-,N/A,,Overcast,350,2012-11-13 21:55:00
5:15 PM,41.0,26.6,57,30.33,10.0,NW,6.9,-,N/A,,Mostly Cloudy,320,2012-11-13 22:15:00
5:35 PM,41.0,28.4,61,30.34,10.0,NNW,6.9,-,N/A,,Overcast,330,2012-11-13 22:35:00
5:55 PM,41.0,28.4,61,30.35,10.0,NNW,3.5,-,N/A,,Overcast,340,2012-11-13 22:55:00
6:15 PM,41.0,30.2,65,30.35,10.0,North,5.8,-,N/A,,Overcast,350,2012-11-13 23:15:00
6:35 PM,41.0,28.4,61,30.36,10.0,NNW,4.6,-,N/A,,Overcast,340,2012-11-13 23:35:00
6:55 PM,41.0,28.4,61,30.37,10.0,North,4.6,-,N/A,,Overcast,350,2012-11-13 23:55:00
7:15 PM,39.2,28.4,65,30.38,10.0,Calm,Calm,-,N/A,,Overcast,0,2012-11-14 00:15:00
7:35 PM,39.2,28.4,65,30.38,10.0,North,-9999.0,-,N/A,,Overcast,0,2012-11-14 00:35:00
7:55 PM,39.2,28.4,65,30.39,10.0,North,4.6,-,N/A,,Overcast,350,2012-11-14 00:55:00
8:15 PM,39.2,28.4,65,30.40,10.0,NW,3.5,-,N/A,,Overcast,320,2012-11-14 01:15:00
8:35 PM,39.2,28.4,65,30.41,10.0,Calm,Calm,-,N/A,,Overcast,0,2012-11-14 01:35:00
8:56 PM,39.2,28.4,65,30.42,10.0,Calm,Calm,-,N/A,,Overcast,0,2012-11-14 01:56:00
9:15 PM,39.2,28.4,65,30.42,10.0,Calm,Calm,-,N/A,,Overcast,0,2012-11-14 02:15:00
9:35 PM,37.4,30.2,75,30.43,10.0,Calm,Calm,-,N/A,,Mostly Cloudy,0,2012-11-14 02:35:00
9:55 PM,35.6,30.2,81,30.43,10.0,Calm,Calm,-,N/A,,Clear,0,2012-11-14 02:55:00
10:15 PM,33.8,30.2,87,30.44,10.0,Calm,Calm,-,N/A,,Clear,0,2012-11-14 03:15:00
10:35 PM,33.8,28.4,81,30.44,10.0,Calm,Calm,-,N/A,,Clear,0,2012-11-14 03:35:00
10:55 PM,30.2,28.4,93,30.44,10.0,Calm,Calm,-,N/A,,Clear,0,2012-11-14 03:55:00
11:15 PM,30.2,26.6,86,30.44,10.0,Calm,Calm,-,N/A,,Clear,0,2012-11-14 04:15:00
11:35 PM,30.2,26.6,86,30.44,10.0,Calm,Calm,-,N/A,,Clear,0,2012-11-14 04:35:00
11:55 PM,28.4,26.6,93,30.44,9.0,Calm,Calm,-,N/A,,Clear,0,2012-11-14 04:55:00